BEL48EP EDDH-EBBR

Flight info

Callsign BEL48EP
Flight time 0h 49m
Altitude 34000
Route WSN5G/33 WSN N125 SILQI N872 LILSI/N0425F330 Z310 WOODY WOODY9A
Aircraft A320/M-SDE3FGHIRWY/LB1

Departure

Time 2026-05-07 18:05
Airport Hamburg Helmut Schmidt Airport (EDDH)

Arrival

Time 2026-05-07 18:55
Airport Brussels Airport (EBBR)
Time Latitude Longitude Altitude Speed Heading
2026-05-07 18:00 53.62640 9.99645 46 ft 0 kts 111°
2026-05-07 18:01 53.62636 9.99670 43 ft 4 kts 103°
2026-05-07 18:01 53.62636 9.99728 47 ft 11 kts 86°
2026-05-07 18:01 53.62676 9.99857 48 ft 10 kts 38°
2026-05-07 18:02 53.62760 9.99838 48 ft 0 kts 332°
2026-05-07 18:04 53.62975 9.99651 46 ft 73 kts 333°
2026-05-07 18:04 53.63616 9.99098 44 ft 131 kts 333°
2026-05-07 18:05 53.64566 9.98282 134 ft 167 kts 333°
2026-05-07 18:05 53.65611 9.97431 791 ft 167 kts 333°
2026-05-07 18:05 53.66645 9.96550 1485 ft 166 kts 332°
2026-05-07 18:05 53.67703 9.95635 1979 ft 180 kts 332°
2026-05-07 18:06 53.68886 9.94607 2275 ft 203 kts 332°
2026-05-07 18:06 53.70194 9.93452 2719 ft 218 kts 327°
2026-05-07 18:06 53.71212 9.91602 3447 ft 220 kts 292°
2026-05-07 18:06 53.71416 9.89003 3925 ft 238 kts 258°
2026-05-07 18:07 53.70914 9.86205 4351 ft 259 kts 251°
2026-05-07 18:07 53.70319 9.83273 4800 ft 267 kts 251°
2026-05-07 18:07 53.69710 9.80306 4884 ft 267 kts 251°
2026-05-07 18:07 53.69105 9.77349 4911 ft 267 kts 251°
2026-05-07 18:08 53.68497 9.74339 5368 ft 273 kts 251°
2026-05-07 18:08 53.67895 9.71316 6362 ft 272 kts 251°
2026-05-07 18:08 53.67301 9.68315 7227 ft 275 kts 251°
2026-05-07 18:08 53.66686 9.65197 8073 ft 278 kts 252°
2026-05-07 18:09 53.66074 9.62080 8880 ft 282 kts 252°
2026-05-07 18:09 53.65440 9.58977 9632 ft 287 kts 248°
2026-05-07 18:09 53.64474 9.56029 9920 ft 288 kts 234°
2026-05-07 18:09 53.63285 9.53255 10002 ft 304 kts 234°
2026-05-07 18:10 53.62014 9.50315 10000 ft 307 kts 234°
2026-05-07 18:10 53.60735 9.47358 10006 ft 309 kts 234°
2026-05-07 18:10 53.59454 9.44391 10118 ft 322 kts 234°
2026-05-07 18:10 53.58105 9.41264 10794 ft 329 kts 234°
2026-05-07 18:11 53.56752 9.38127 11522 ft 333 kts 234°
2026-05-07 18:11 53.55849 9.36031 12005 ft 336 kts 234°
2026-05-07 18:11 53.54000 9.31741 12966 ft 341 kts 234°
2026-05-07 18:11 53.52600 9.28502 13649 ft 344 kts 234°
2026-05-07 18:12 53.51185 9.25228 14320 ft 348 kts 234°
2026-05-07 18:12 53.49758 9.21928 14971 ft 351 kts 234°
2026-05-07 18:12 53.48314 9.18597 15606 ft 354 kts 234°
2026-05-07 18:12 53.46856 9.15234 16224 ft 358 kts 234°
2026-05-07 18:13 53.45385 9.11846 16829 ft 361 kts 234°
2026-05-07 18:13 53.43894 9.08428 17427 ft 364 kts 234°
2026-05-07 18:13 53.42391 9.04990 17993 ft 367 kts 234°
2026-05-07 18:13 53.40873 9.01523 18564 ft 371 kts 234°
2026-05-07 18:14 53.39340 8.98028 19111 ft 374 kts 234°
2026-05-07 18:14 53.37791 8.94496 19658 ft 377 kts 234°
2026-05-07 18:14 53.36253 8.90995 20193 ft 380 kts 234°
2026-05-07 18:14 53.34808 8.87280 20713 ft 383 kts 242°
2026-05-07 18:15 53.33740 8.83111 21239 ft 386 kts 250°
2026-05-07 18:15 53.32818 8.78879 21746 ft 389 kts 250°
2026-05-07 18:15 53.31892 8.74663 22243 ft 392 kts 250°
2026-05-07 18:15 53.30942 8.70373 22734 ft 395 kts 250°
2026-05-07 18:16 53.29982 8.66055 23210 ft 398 kts 250°
2026-05-07 18:16 53.29019 8.61701 23671 ft 401 kts 250°
2026-05-07 18:16 53.28055 8.57315 24119 ft 403 kts 250°
2026-05-07 18:16 53.27089 8.52900 24545 ft 406 kts 250°
2026-05-07 18:17 53.26124 8.48451 24963 ft 409 kts 251°
2026-05-07 18:17 53.25219 8.43940 25365 ft 411 kts 252°
2026-05-07 18:17 53.24362 8.39375 25751 ft 413 kts 253°
2026-05-07 18:17 53.23519 8.34733 26134 ft 416 kts 253°
2026-05-07 18:18 53.22686 8.30134 26497 ft 418 kts 253°
2026-05-07 18:18 53.21833 8.25480 26865 ft 421 kts 253°
2026-05-07 18:18 53.20961 8.20814 27198 ft 423 kts 252°
2026-05-07 18:18 53.20069 8.16126 27539 ft 425 kts 252°
2026-05-07 18:19 53.19164 8.11418 27873 ft 427 kts 252°
2026-05-07 18:19 53.18258 8.06683 28199 ft 429 kts 252°
2026-05-07 18:19 53.17360 8.01931 28512 ft 431 kts 252°
2026-05-07 18:19 53.16460 7.97145 28819 ft 434 kts 252°
2026-05-07 18:20 53.15555 7.92338 29117 ft 436 kts 252°
2026-05-07 18:20 53.14642 7.87515 29406 ft 438 kts 252°
2026-05-07 18:20 53.13724 7.82672 29695 ft 439 kts 252°
2026-05-07 18:20 53.12797 7.77814 29963 ft 441 kts 252°
2026-05-07 18:21 53.11861 7.72944 30228 ft 443 kts 252°
2026-05-07 18:21 53.10919 7.68055 30486 ft 445 kts 252°
2026-05-07 18:21 53.09969 7.63137 30736 ft 447 kts 252°
2026-05-07 18:21 53.09014 7.58205 30974 ft 448 kts 252°
2026-05-07 18:22 53.08054 7.53262 31202 ft 450 kts 252°
2026-05-07 18:22 53.06127 7.43344 31763 ft 450 kts 252°
2026-05-07 18:22 53.05164 7.38407 32073 ft 449 kts 252°
2026-05-07 18:23 53.04198 7.33473 32381 ft 448 kts 252°
2026-05-07 18:23 53.03230 7.28555 32680 ft 448 kts 252°
2026-05-07 18:23 53.02261 7.23645 32975 ft 447 kts 252°
2026-05-07 18:23 53.01294 7.18745 33274 ft 446 kts 252°
2026-05-07 18:24 53.00329 7.13922 33557 ft 446 kts 251°
2026-05-07 18:24 52.99339 7.09050 33842 ft 445 kts 251°
2026-05-07 18:24 52.98665 7.05759 33962 ft 445 kts 251°
2026-05-07 18:25 52.96695 6.96177 34007 ft 434 kts 251°
2026-05-07 18:25 52.94753 6.86723 34010 ft 432 kts 251°
2026-05-07 18:26 52.92817 6.77298 34007 ft 432 kts 251°
2026-05-07 18:26 52.90867 6.67892 34010 ft 432 kts 251°
2026-05-07 18:27 52.88907 6.58484 34008 ft 432 kts 251°
2026-05-07 18:27 52.86957 6.49156 34005 ft 431 kts 251°
2026-05-07 18:28 52.84993 6.39780 34002 ft 431 kts 251°
2026-05-07 18:28 52.83012 6.30417 33999 ft 431 kts 251°
2026-05-07 18:29 52.81025 6.21067 33998 ft 431 kts 251°
2026-05-07 18:29 52.79034 6.11726 33998 ft 431 kts 250°
2026-05-07 18:30 52.77031 6.02395 33998 ft 431 kts 250°
2026-05-07 18:30 52.75027 5.93055 33994 ft 431 kts 250°
2026-05-07 18:31 52.72833 5.83856 33997 ft 431 kts 241°
2026-05-07 18:31 52.69310 5.75982 33996 ft 431 kts 229°
2026-05-07 18:32 52.65360 5.68538 33994 ft 431 kts 229°
2026-05-07 18:32 52.61129 5.61599 33995 ft 430 kts 214°
2026-05-07 18:33 52.56123 5.56188 33992 ft 431 kts 213°
2026-05-07 18:33 52.51082 5.50842 33993 ft 431 kts 213°
2026-05-07 18:34 52.46039 5.45501 33994 ft 431 kts 213°
2026-05-07 18:34 52.40995 5.40159 33995 ft 432 kts 213°
2026-05-07 18:35 52.35949 5.34830 33996 ft 432 kts 213°
2026-05-07 18:35 52.30934 5.29540 33997 ft 432 kts 213°
2026-05-07 18:36 52.25902 5.24238 33703 ft 426 kts 213°
2026-05-07 18:36 52.23426 5.21637 33339 ft 421 kts 213°
2026-05-07 18:36 52.20962 5.19054 32594 ft 423 kts 213°
2026-05-07 18:36 52.18448 5.16422 31452 ft 435 kts 213°
2026-05-07 18:37 52.15882 5.13741 30700 ft 437 kts 213°
2026-05-07 18:37 52.13350 5.11098 30099 ft 427 kts 213°
2026-05-07 18:37 52.10885 5.08527 29462 ft 414 kts 213°
2026-05-07 18:37 52.08504 5.06050 29014 ft 398 kts 213°
2026-05-07 18:38 52.06215 5.03670 28572 ft 384 kts 213°
2026-05-07 18:38 52.04004 5.01376 28140 ft 370 kts 213°
2026-05-07 18:38 52.01928 4.99226 27750 ft 358 kts 213°
2026-05-07 18:38 51.99852 4.97080 27351 ft 353 kts 213°
2026-05-07 18:39 51.97781 4.94946 26952 ft 352 kts 213°
2026-05-07 18:39 51.95983 4.93092 26611 ft 350 kts 213°
2026-05-07 18:39 51.93922 4.90964 26203 ft 350 kts 213°
2026-05-07 18:39 51.91879 4.88854 25796 ft 348 kts 213°
2026-05-07 18:40 51.89845 4.86754 25365 ft 346 kts 213°
2026-05-07 18:40 51.87822 4.84668 24960 ft 343 kts 213°
2026-05-07 18:40 51.85815 4.82600 24526 ft 342 kts 213°
2026-05-07 18:40 51.83814 4.80545 24102 ft 340 kts 212°
2026-05-07 18:41 51.81823 4.78504 23666 ft 338 kts 212°
2026-05-07 18:41 51.79835 4.76472 23231 ft 337 kts 212°
2026-05-07 18:41 51.77856 4.74448 22799 ft 336 kts 212°
2026-05-07 18:41 51.75886 4.72432 22375 ft 335 kts 212°
2026-05-07 18:42 51.73945 4.70448 21957 ft 334 kts 212°
2026-05-07 18:42 51.71919 4.68499 21530 ft 339 kts 204°
2026-05-07 18:42 51.69656 4.67582 21111 ft 344 kts 185°
2026-05-07 18:42 51.67232 4.67331 20677 ft 344 kts 183°
2026-05-07 18:43 51.64843 4.67156 20252 ft 343 kts 182°
2026-05-07 18:43 51.62461 4.66990 19826 ft 342 kts 182°
2026-05-07 18:43 51.60087 4.66825 19400 ft 341 kts 182°
2026-05-07 18:43 51.57751 4.66664 18979 ft 340 kts 182°
2026-05-07 18:44 51.55397 4.66502 18554 ft 339 kts 182°
2026-05-07 18:44 51.53045 4.66341 18100 ft 339 kts 182°
2026-05-07 18:44 51.50684 4.66179 17562 ft 341 kts 182°
2026-05-07 18:44 51.48291 4.66015 16847 ft 349 kts 182°
2026-05-07 18:45 51.45851 4.65848 16083 ft 350 kts 182°
2026-05-07 18:45 51.43434 4.65682 15337 ft 345 kts 182°
2026-05-07 18:45 51.41053 4.65519 14583 ft 341 kts 182°
2026-05-07 18:45 51.38698 4.65419 13825 ft 336 kts 176°
2026-05-07 18:46 51.36451 4.66270 13072 ft 331 kts 160°
2026-05-07 18:46 51.34319 4.67624 12324 ft 327 kts 158°
2026-05-07 18:46 51.32227 4.69004 11574 ft 323 kts 158°
2026-05-07 18:46 51.30162 4.70370 10817 ft 319 kts 158°
2026-05-07 18:47 51.28121 4.71721 10072 ft 316 kts 158°
2026-05-07 18:47 51.26101 4.73058 9314 ft 312 kts 158°
2026-05-07 18:47 51.24109 4.74376 8556 ft 308 kts 158°
2026-05-07 18:47 51.22139 4.75678 7806 ft 305 kts 158°
2026-05-07 18:48 51.20195 4.76963 7049 ft 301 kts 158°
2026-05-07 18:48 51.18268 4.78237 6298 ft 297 kts 158°
2026-05-07 18:48 51.16365 4.79494 5542 ft 294 kts 158°
2026-05-07 18:48 51.14485 4.80705 4788 ft 290 kts 162°
2026-05-07 18:49 51.12517 4.81122 4053 ft 284 kts 180°
2026-05-07 18:49 51.10550 4.81045 3296 ft 281 kts 182°
2026-05-07 18:49 51.08606 4.80922 2530 ft 278 kts 182°
2026-05-07 18:49 51.06703 4.80797 2058 ft 266 kts 183°
2026-05-07 18:50 51.04897 4.80678 1934 ft 257 kts 183°
2026-05-07 18:50 51.03126 4.80394 1931 ft 254 kts 193°
2026-05-07 18:50 51.01579 4.79447 1928 ft 228 kts 216°
2026-05-07 18:50 51.00352 4.77873 1934 ft 226 kts 222°
2026-05-07 18:51 50.99185 4.76211 1937 ft 225 kts 223°
2026-05-07 18:51 50.98025 4.74537 1935 ft 225 kts 223°
2026-05-07 18:51 50.96867 4.72864 1935 ft 225 kts 223°
2026-05-07 18:51 50.95708 4.71190 1935 ft 225 kts 223°
2026-05-07 18:52 50.94548 4.69515 1935 ft 225 kts 223°
2026-05-07 18:52 50.93492 4.67726 1923 ft 214 kts 240°
2026-05-07 18:52 50.92959 4.65672 1904 ft 194 kts 250°
2026-05-07 18:52 50.92507 4.63705 1669 ft 187 kts 250°
2026-05-07 18:53 50.92062 4.61767 1424 ft 187 kts 250°
2026-05-07 18:53 50.91624 4.59862 1176 ft 177 kts 250°
2026-05-07 18:53 50.91220 4.58103 953 ft 163 kts 250°
2026-05-07 18:53 50.90851 4.56498 745 ft 152 kts 250°
2026-05-07 18:54 50.90489 4.54926 551 ft 148 kts 250°
2026-05-07 18:54 50.90136 4.53400 335 ft 146 kts 250°
2026-05-07 18:54 50.89791 4.51895 174 ft 145 kts 250°
2026-05-07 18:54 50.89501 4.50625 175 ft 98 kts 250°
2026-05-07 18:55 50.89338 4.49915 177 ft 30 kts 251°
2026-05-07 18:55 50.89394 4.49613 169 ft 25 kts 306°
2026-05-07 18:55 50.89471 4.49461 165 ft 19 kts 308°
2026-05-07 18:55 50.89548 4.49290 159 ft 11 kts 310°
2026-05-07 18:56 50.89589 4.49232 156 ft 6 kts 341°
2026-05-07 18:56 50.89643 4.49249 152 ft 10 kts 18°
2026-05-07 18:56 50.89715 4.49289 148 ft 12 kts 15°
2026-05-07 18:56 50.89806 4.49328 142 ft 16 kts 14°
2026-05-07 18:57 50.89933 4.49379 135 ft 22 kts 14°
2026-05-07 18:57 50.90094 4.49444 128 ft 25 kts 14°
2026-05-07 18:57 50.90272 4.49518 123 ft 26 kts 15°
2026-05-07 18:57 50.90387 4.49495 122 ft 17 kts 313°
2026-05-07 18:58 50.90345 4.49368 125 ft 14 kts 224°
2026-05-07 18:58 50.90303 4.49242 126 ft 12 kts 245°
2026-05-07 18:58 50.90269 4.49122 126 ft 12 kts 245°
2026-05-07 18:58 50.90233 4.49001 127 ft 14 kts 245°
2026-05-07 18:59 50.90187 4.48840 124 ft 17 kts 246°
2026-05-07 18:59 50.90135 4.48659 125 ft 19 kts 245°
2026-05-07 18:59 50.90087 4.48496 124 ft 16 kts 246°
2026-05-07 18:59 50.90124 4.48413 122 ft 9 kts 341°
2026-05-07 19:00 50.90160 4.48389 121 ft 7 kts 336°
2026-05-07 19:00 50.90192 4.48366 121 ft 1 kts 335°
2026-05-07 19:00 50.90201 4.48360 119 ft 2 kts 336°
2026-05-07 19:00 50.90212 4.48352 120 ft 1 kts 335°
2026-05-07 19:01 50.90214 4.48350 120 ft 0 kts 335°